Weather in Kishinev

Moldova     47°01′28″N   28°49′56″E
temp.,
°C
wind,
m/s
gust,
m/s
humid.,
%
clouds,
%
prec.,
mm/h
press.,
hPa
HPBL,
m
22 october, fri
fri2200:00+12sw34594 0.0 101257
03:00+12wsw22525 0.0 101213
06:00+11wsw225262 0.0 101311
09:00+14sw22475 0.0 101493
12:00+20w46375 0.0 10151090
15:00+22w5632100 0.0 10141970
18:00+17nnw3341100 0.0 101422
21:00+15ssw1145100 0.0 101511
23 october, sat
sat2300:00+13wnw225299 0.0 101611
03:00+14n1146100 0.0 101614
06:00+12n1152100 0.0 101710
09:00+14nne004982 0.0 101879
12:00+17n23404 0.0 10191568
15:00+14n884515 0.0 10201187
18:00+12nnw473221 0.0 1021154
21:00+10nnw3732100 0.0 1023209
24 october, sun
sun2400:00+10nnw483783 0.0 1025343
03:00+7nw344795 0.0 102683
06:00+5nw36574 0.0 102692
09:00+6nw411584 0.0 1028542
12:00+11nw794137 0.0 10281748
15:00+10nw810455 0.0 10281637
18:00+9nnw611415 0.0 1029429
21:00+4n34625 0.0 103155
25 october, mon
mon2500:00+3nw36695 0.0 1032111
03:00+2nw487295 0.0 1033155
06:00+1nnw377418 0.0 1033124
09:00+3n256519 0.0 1035200
12:00+8nne34410 0.0 10351007
15:00+10ne32303 0.0 10341204
18:00+6e22365 0.0 103310
21:00+3ese22445 0.0 103411
26 october, tue
tue2600:00+2se22510 0.0 103414
03:00+1se22565 0.0 103414
06:000ese226223 0.0 103313
09:00+2ese26567 0.0 1033179
12:00+9se56425 0.0 1032947
15:00+12sse56365 0.0 10291246
18:00+8se45515 0.0 102968
21:00+5se497116 0.0 1029174